Regional Weather Roundup
Issued by NWS

Home | Current Version | Previous Version | Text Only | Print | Product List | Glossary Off
Versions: 1 2 3 4 5 6 7 8 9 10 11 12 13 14 15 16 17 18 19 20 21 22 23 24 25 26 27 28 29 30 31 32 33 34 35 36 37 38 39 40 41 42 43 44 45 46 47 48 49 50

404
ASUS43 KLMK 131602
RWRKY
KENTUCKY REGIONAL WEATHER ROUNDUP
NATIONAL WEATHER SERVICE LOUISVILLE KY
1100 AM EST SAT FEB 13 2016

NOTE "FAIR" INDICATES FEW OR NO CLOUDS BELOW 12,000 FEET
WITH NO SIGNIFICANT WEATHER AND/OR OBSTRUCTIONS TO VISIBILITY.

KYZ001>023-026-027-061>063-070>075-131700-
WESTERN AND SOUTH CENTRAL KENTUCKY

CITY           SKY/WX    TMP DP  RH WIND       PRES   REMARKS
PADUCAH        CLOUDY    20   3  48 N8        30.62F WCI  10
HENDERSON      SUNNY     18   3  53 NE8       30.63F WCI   7
OWENSBORO      SUNNY     19   2  47 N12       30.63F WCI   7
HOPKINSVILLE   SUNNY     21   5  49 N9        30.59S WCI  11
BOWLING GREEN  SUNNY     23   5  46 VRB6      30.58F WCI  16
GLASGOW        NOT AVBL
$$

KYZ024-025-028>034-038-045-046-053-131700-
NORTH CENTRAL KENTUCKY

CITY           SKY/WX    TMP DP  RH WIND       PRES   REMARKS
LOUISVILLE/SDF MOSUNNY   20  -1  40 NE6       30.60R WCI  12
LOUISVILLE/LOU SUNNY     19   1  45 N6G18     30.60R WCI  11
FORT KNOX      SUNNY     18  -1  42 N6        30.55S WCI  10
$$

KYZ035>037-039>044-047>052-055>060-089>105-131700-
NORTHEAST KENTUCKY

CITY           SKY/WX    TMP DP  RH WIND       PRES   REMARKS
LEXINGTON      CLOUDY    17   4  56 N8        30.53R WCI   7
COVINGTON      MOSUNNY   15   3  59 NW6       30.54R WCI   6
FRANKFORT      PTSUNNY   18   1  47 N7        30.55R WCI   9
$$

KYZ054-064>069-076>088-106>120-131700-
SOUTHEAST KENTUCKY

CITY           SKY/WX    TMP DP  RH WIND       PRES   REMARKS
JACKSON        CLOUDY    17   2  51 VRB5      30.46R WCI  10
LONDON         CLOUDY    18   5  57 NW10      30.48R WCI   6
SOMERSET       NOT AVBL
MIDDLESBORO    NOT AVBL
MONTICELLO     SUNNY     22   7  52 N18       30.53S WCI   7
$$





USA.gov is the U.S. government's official web portal to all federal, state and local government web resources and services.